Location: Six Mile Lake
(44.9000°N, 79.7170°W)
Time: 02:15:19
(UTC-04:00)

STRAND 1 - Pass Details

Date: 05 July 2022
Orbit: 767 x 781 km, 98.4° (Epoch: 09 August)

Event Time Altitude Azimuth Distance (km) Brightness Sun altitude
Rises 21:43:57 0° 1° (N) 3,268 ? -5.9°
Reaches altitude 10° 21:46:46 10° 346° (NNW) 2,333 ? -6.3°
Maximum altitude 21:50:32 21° 299° (WNW) 1,679 ? -6.8°
Drops below altitude 10° 21:54:18 10° 251° (WSW) 2,314 ? -7.3°
Sets 21:57:05 0° 236° (SW) 3,234 ? -7.7°
